STARLINK-2537, 48301

Orbit data source: Space-Track

STARLINK-2537, 48301 is a payload satellite owned by SpaceX/Seattle (US) in LEO that was launched on Thu, 29 Apr 2021 UTC via an FALCON 9 launch vehicle from the Air Force Eastern Test Range (AFETR). Payload-class satellites include a variety of spacecraft equipped with specific instruments for various scientific and technological missions. These include communications satellites like Starlink; space stations such as the ISS; scientific satellites like the Hubble; Earth observation satellites from companies like Planet Labs, Umbra, and HawkEye 360; GPS; miniature CubeSats for education and research; and military/defense satellites.

Loading next visibility...
Identifier
48301, 2021-036AB
Orbit
LEO
Country
Flag of USUS
Related business
Manufacturer
SpaceX/Seattle
Mission
Operational Commercial Communications
Bus & Motor
STARLINK, Unknown motor
Mass
260 kg wet, ~248 kg dry
Launch date (UTC)
2021-04-29 (5 years ago)
Launch vehicle
FALCON 9
Launch site
Air Force Eastern Test Range (AFETR)
Object type
Payload
Rocket body
Debris
Shape & HBR
Box + 1 Pan, 10.1 m
Radar Cross Section
13.562 m², Large (>1 m²)

Expand to show TLE details & history
Last TLE update: 8 hours ago

TLE from 8 hours ago
0 STARLINK-2537
1 48301U 21036AB  26127.17105986 -.00445918  00000-0 -16519-1 0  9999
2 48301  53.1577 179.2096 0003311 164.6758 195.4343 15.29081965277130
Epoch: 2026-05-07T04:06Z
TLE epoch observation values (Epoch: 2026-05-07T04:06:19.571Z)
Latitude
-0.00005°
Longitude
-107.39301°
Altitude
481.643 km
Speed
7.625 km/s
True Right ascension
11h 56m 50s
True Declination
0° 00' 00"
Sunlit
Object was in full shadow at epoch
Visualization orbit readout
Latitude
Unknown
Longitude
Unknown
Altitude
Unknown
Speed
Unknown
Apparent Right ascension
Unknown
Apparent Declination
Unknown
Sunlit
N/A
Visualization observer readout
Local Sidereal Time
19:58:16
Azimuth
Unknown
Elevation
Unknown
Doppler factor
Unknown
Orbital elements
Apogee altitude
481.082 km
Perigee altitude
476.542 km
Semi-major axis
6,856.949 km
Eccentricity
0.00033
Inclination
53.1577°
RAAN
179.2096°
Arg. of periapsis
164.6758°
True anomaly
195.42421°
Mean anomaly
195.4343°
Eccentric anomaly
195.42925°
Mean motion
3.82249 °/min
Orbital period
94.18 mins
BSTAR
-0.016519
Loading maneuver chart data...
Computing Atmospheric mass density...

Documentation

Showing up to 5 results
|